Location: College Terrace
(37.4216°N, 122.1514°W)
Time: 20:18:33
(UTC+00:00)

Daily predictions for brighter satellites

Satellite Brightness Start Highest point End
(mag) Time Altitude Azimuth Time Altitude Azimuth Time Altitude Azimuth
Cosmos 1782 3.1 12:02:10 10° NNW 12:05:36 40° W 12:09:01 10° SSW
Cosmos 2084 3.9 12:02:20 10° NW 12:05:48 31° WSW 12:09:15 10° S
Transit 2A Rocket 4.5 12:03:05 10° SSW 12:07:23 88° WNW 12:11:42 10° NNE
ADEOS Rocket 4.1 12:02:24 10° NNE 12:08:53 54° E 12:16:00 10° S
Chandra Rocket (1) 3.8 12:05:40 10° SW 12:09:08 30° SSE 12:17:51 10° E
Aureole 1 Rocket 3.3 12:07:23 10° SSW 12:11:17 55° WNW 12:16:16 10° N
H-2A R/B 2.3 12:06:31 10° N 12:11:37 54° WNW 12:16:33 10° SSW
ARGOS Delta rocket 4.4 12:06:23 10° NNE 12:11:47 75° E 12:17:12 10° S
Cosmos 2369 Rocket 3.5 12:08:03 10° WSW 12:12:47 27° WNW 12:17:34 10° N
CZ-2C R/B 2.3 12:09:32 10° N 12:14:12 79° WNW 12:18:58 10° SSW
Cosmos 1400 Rocket 3.8 12:14:20 10° NW 12:17:36 27° W 12:20:52 10° SSW
Cosmos 1933 3.2 12:13:59 10° N 12:17:50 76° W 12:21:40 10° S
NOSS 8 (A) 4.3 12:15:30 10° NW 12:18:35 72° WSW 12:22:27 10° SSE
Cosmos 1538 Rocket 4.0 12:14:15 10° NNW 12:19:31 73° WSW 12:24:49 10° S
SEDSat Delta rocket 4.3 12:15:48 10° SW 12:19:57 28° SSE 12:23:43 10° ESE
